Regional Weather Roundup
Issued by NWS

Home | Current Version | Previous Version | Graphics & Text | Print | Product List | Glossary On
Versions: 1 2 3 4 5 6 7 8 9 10 11 12 13 14 15 16 17 18 19 20 21 22 23 24 25 26 27 28 29 30 31 32 33 34 35 36 37 38 39 40 41 42 43 44 45 46 47 48 49 50
655
ASUS43 KBIS 232102
RWRND

NORTH DAKOTA REGIONAL WEATHER ROUNDUP
NATIONAL WEATHER SERVICE BISMARCK ND
400 PM CDT MON MAY 23 2016

NOTE: "FAIR" INDICATES FEW OR NO CLOUDS BELOW 12,000 FEET WITH NO
SIGNIFICANT WEATHER AND/OR OBSTRUCTIONS TO VISIBILITY.


NDZ001>003-009>011-017-232200-
NORTHWEST NORTH DAKOTA

CITY           SKY/WX    TMP DP  RH WIND       PRES   REMARKS
WILLISTON      MOSUNNY   73  33  23 SW24G32   29.63R
MINOT          SUNNY     81  30  15 SW18G35   29.61F
MINOT AFB      MOSUNNY   74  33  22 W20G28    29.60S
$$

NDZ018>021-031>035-040>046-232200-
SOUTHWEST NORTH DAKOTA

CITY           SKY/WX    TMP DP  RH WIND       PRES   REMARKS
BISMARCK       MOSUNNY   76  35  22 SW12      29.67S
DICKINSON      MOSUNNY   70  29  21 W18G24    29.68S
GARRISON         N/A     77  33  20 W21G31    29.65S
HETTINGER ARPT PTSUNNY   71  31  22 VRB3      29.71S
$$

NDZ004>008-012>016-024-026-027-054-232200-
NORTHEAST NORTH DAKOTA

CITY           SKY/WX    TMP DP  RH WIND       PRES   REMARKS
GRAND FORKS    MOSUNNY   81  46  29 SW12      29.65R
GRND FRKS AFB  SUNNY     80  43  26 W10       29.65R
DEVILS LAKE    MOSUNNY   75  41  29 W12       29.66R
$$

NDZ022-023-025-028>030-036>039-047>053-232200-
SOUTHEAST NORTH DAKOTA

CITY           SKY/WX    TMP DP  RH WIND       PRES   REMARKS
FARGO          CLOUDY    83  44  25 W12       29.66F
JAMESTOWN      MOSUNNY   78  45  30 S10       29.67S
$$





USA.gov is the U.S. government's official web portal to all federal, state and local government web resources and services.